STARLINK-11147, 60301

Orbit data source: Space-Track

STARLINK-11147, 60301 is a payload satellite owned by SpaceX/Seattle (US) in LEO that was launched on Sun, 28 Jul 2024 UTC via an FALCON 9 launch vehicle from the Air Force Western Test Range (AFWTR). Payload-class satellites include a variety of spacecraft equipped with specific instruments for various scientific and technological missions. These include communications satellites like Starlink; space stations such as the ISS; scientific satellites like the Hubble; Earth observation satellites from companies like Planet Labs, Umbra, and HawkEye 360; GPS; miniature CubeSats for education and research; and military/defense satellites.

Not visible in the next 10 days
Identifier
60301, 2024-133A
Orbit
LEO
Country
Flag of USUS
Related business
Manufacturer
SpaceX/Seattle
Mission
Operational Commercial Communications
Bus & Motor
STARLINK V2MD, Unknown motor
Mass
960 kg wet, ~910 kg dry
Launch date (UTC)
2024-07-28 (2 years ago)
Launch vehicle
FALCON 9
Launch site
Air Force Western Test Range (AFWTR)
Object type
Payload
Rocket body
Debris
Shape & HBR
Box + 2 Pan, 18.1 m
Radar Cross Section
36.964 m², Large (>1 m²)

Expand to show TLE details & history
Last TLE update: 1 day ago

TLE from 1 day ago
0 STARLINK-11147
1 60301U 24133A   26170.76751144  .00001273  00000-0  15360-4 0  9996
2 60301  53.1595   3.2351 0000834  88.1858 271.9255 15.69711533109762
Epoch: 2026-06-19T18:25Z
TLE epoch observation values (Epoch: 2026-06-19T18:25:12.988Z)
Latitude
-0.00005°
Longitude
178.93918°
Altitude
360.619 km
Speed
7.694 km/s
True Right ascension
00h 12m 56s
True Declination
0° 00' 00"
Sunlit
Object was in daylight at epoch
Visualization orbit readout
Latitude
Unknown
Longitude
Unknown
Altitude
Unknown
Speed
Unknown
Apparent Right ascension
Unknown
Apparent Declination
Unknown
Sunlit
N/A
Visualization observer readout
Local Sidereal Time
07:14:51
Azimuth
Unknown
Elevation
Unknown
Doppler factor
Unknown
Orbital elements
Apogee altitude
360.545 km
Perigee altitude
359.421 km
Semi-major axis
6,738.12 km
Eccentricity
0.00008
Inclination
53.1595°
RAAN
3.2351°
Arg. of periapsis
88.1858°
True anomaly
271.91595°
Mean anomaly
271.9255°
Eccentric anomaly
271.92072°
Mean motion
3.92405 °/min
Orbital period
91.74 mins
BSTAR
0.00001536
Loading maneuver chart data...
Computing Atmospheric mass density...
Loading historical data...
Loading historical data...
Loading historical data...
Loading historical data...
Loading historical data...
Loading historical data...
Loading historical data...

Documentation

Showing up to 5 results
|